Regional Weather Roundup
Issued by NWS

Home | Current Version | Previous Version | Graphics & Text | Print | Product List | Glossary On
Versions: 1 2 3 4 5 6 7 8 9 10 11 12 13 14 15 16 17 18 19 20 21 22 23 24 25 26 27 28 29 30 31 32 33 34 35 36 37 38 39 40 41 42 43 44 45 46 47 48 49 50
000
ASUS43 KTOP 271408
RWRKS

WEATHER ROUNDUP FOR KANSAS
NATIONAL WEATHER SERVICE GOODLAND KS
800 AM CST TUE JAN 27 2015

NOTE:  "FAIR" INDICATES FEW OR NO CLOUDS BELOW 12,000 FEET WITH NO
SIGNIFICANT WEATHER AND/OR OBSTRUCTIONS TO VISIBILITY.

KSZ001>006-013>018-027>032-041>047-271500-
NORTHWEST KANSAS

CITY           SKY/WX    TMP DP  RH WIND       PRES   REMARKS
GOODLAND       CLEAR     43  27  53 W12       30.10R
HAYS           PTCLDY    30  19  64 W6        30.08S
HILL CITY      PTCLDY    31  26  82 W7        30.08R
RUSSELL        PTCLDY    33  28  81 SW8       30.07R
$$

KSZ061>065-074>080-084>089-271500-
SOUTHWEST KANSAS

CITY           SKY/WX    TMP DP  RH WIND       PRES   REMARKS
DODGE CITY     CLEAR     40  30  67 W9        30.13R
ELKHART          N/A     43  28  55 W10         N/A
GARDEN CITY    CLEAR     34  29  82 W9        30.12S
GREAT BEND     PTCLDY    34  27  75 SW6       30.10S
LIBERAL        PTCLDY    36  27  69 NW7       30.18R
PRATT          CLEAR     36  32  87 W5        30.12S
$$

KSZ066>073-081>083-090>101-271500-
SOUTHEAST KANSAS

CITY           SKY/WX    TMP DP  RH WIND       PRES   REMARKS
CHANUTE        CLEAR     34  30  85 CALM      30.15R
COFFEYVILLE    CLEAR     30  28  92 CALM      30.15R
HUTCHINSON     PTCLDY    29  25  85 CALM      30.11S
MEDICINE LODGE   N/A     36  30  79 CALM      30.13R
NEWTON         CLEAR     36  27  69 SE8       30.14R
PARSONS        CLEAR     29  27  92 CALM      30.15R
WICHITA INTL   PTCLDY    34  28  79 CALM      30.12R
WICHITA JABRA  PTCLDY    34  30  85 VRB5      30.13R
WICHITA MCCONL CLEAR     39  32  73 E5        30.13R
WINFIELD       CLEAR     31  27  85 CALM      30.14R
$$

KSZ007>012-019>026-033>040-048>060-102>105-271500-
NORTHEAST KANSAS

CITY           SKY/WX    TMP DP  RH WIND       PRES   REMARKS
CONCORDIA      PTCLDY    30  27  88 E3        30.09R
EMPORIA        CLEAR     34  28  79 CALM      30.13R
LAWRENCE       CLEAR     24  21  88 NW3       30.15R
MANHATTAN      CLEAR     26  24  92 CALM      30.13R
MARYSVILLE     PTCLDY    27  23  86 SE3       30.12R
OLATHE IND     CLEAR     32  30  92 CALM      30.14R
OLATHE EXE     CLEAR     36  31  82 CALM      30.13R
SALINA         PTCLDY    29  26  89 S3        30.11R
TOPEKA BILLARD CLEAR     26  23  88 CALM      30.16R
TOPEKA FORBES  CLEAR     28  24  85 CALM      30.13S
$$


USA.gov is the U.S. government's official web portal to all federal, state and local government web resources and services.